EST,Max TemperatureF,Mean TemperatureF,Min TemperatureF,Max Dew PointF,MeanDew PointF,Min DewpointF,Max Humidity, Mean Humidity, Min Humidity, Max Sea Level PressureIn, Mean Sea Level PressureIn, Min Sea Level PressureIn, Max VisibilityMiles, Mean VisibilityMiles, Min VisibilityMiles, Max Wind SpeedMPH, Mean Wind SpeedMPH, Max Gust SpeedMPH,PrecipitationIn, CloudCover, Events, WindDirDegrees
2012-11-1,49,41,33,35,30,24,85,67,49,29.84,29.76,29.72,10,10,10,21,11,25,0.00,6,,298
2012-11-2,43,38,33,30,28,26,75,66,57,30.13,29.97,29.84,10,10,7,21,9,30,T,7,Snow,318
2012-11-3,37,34,30,34,28,26,85,69,52,30.24,30.19,30.06,10,10,10,9,4,13,0.00,7,,342
2012-11-4,39,32,25,28,25,21,85,70,54,30.26,30.23,30.19,10,10,10,10,3,13,0.00,6,,7
2012-11-5,40,31,21,28,22,17,92,73,54,30.27,30.23,30.19,10,9,5,8,2,14,0.00,4,,64
2012-11-6,42,33,24,28,25,21,92,73,54,30.18,30.08,30.00,10,10,6,14,6,18,0.00,5,,139
2012-11-7,47,37,26,30,27,22,85,69,53,30.19,30.10,30.00,10,9,7,12,5,14,0.00,2,,53
2012-11-8,50,37,23,31,27,22,92,69,46,30.26,30.19,30.15,10,7,3,12,3,14,0.00,2,,216
2012-11-9,56,45,34,39,35,30,85,68,50,30.19,30.14,30.09,10,6,3,13,6,17,0.00,6,,171
2012-11-10,64,56,48,48,44,42,80,66,52,30.12,30.05,29.97,10,8,4,22,10,29,T,7,Rain,158
2012-11-11,69,63,56,48,44,36,61,50,39,30.07,29.98,29.89,10,10,10,29,18,38,0.00,4,,187
2012-11-12,61,46,31,50,36,22,96,68,39,30.27,30.00,29.87,10,9,5,26,16,32,0.28,8,Rain-Snow,246
2012-11-13,34,29,24,25,20,18,81,66,51,30.56,30.45,30.25,10,10,7,18,4,23,T,6,Snow,285
2012-11-14,41,31,20,25,21,16,88,68,48,30.61,30.55,30.47,10,10,8,9,3,14,0.00,4,,148
2012-11-15,44,34,23,29,25,20,92,73,53,30.46,30.41,30.37,10,8,4,7,1,13,0.00,3,,223
2012-11-16,52,39,25,36,30,22,92,71,50,30.52,30.47,30.40,8,5,2,8,0,10,0.00,0,,260
2012-11-17,53,40,26,32,27,23,92,65,38,30.62,30.56,30.51,10,5,1,9,4,14,0.00,2,,154
2012-11-18,56,45,33,37,33,27,100,68,35,30.55,30.50,30.40,10,5,0,12,7,15,0.00,3,Fog,137
2012-11-19,54,42,29,37,31,28,96,71,45,30.41,30.32,30.18,10,6,1,9,4,12,0.00,5,,138
2012-11-20,56,46,36,41,36,31,86,71,55,30.18,30.14,30.09,10,8,2,7,1,25,0.00,6,,105
2012-11-21,56,43,29,41,34,28,100,78,55,30.26,30.19,30.14,8,2,0,12,4,14,0.00,3,Fog,192
2012-11-22,61,52,43,45,41,38,92,67,42,30.14,30.01,29.75,10,6,2,24,13,31,0.04,3,Rain,195
2012-11-23,54,43,31,47,30,19,85,71,56,30.06,29.83,29.70,10,8,2,30,19,40,0.02,8,Rain-Snow,267
2012-11-24,31,30,29,19,18,16,69,61,53,30.16,30.11,30.03,10,10,9,20,11,25,T,8,Snow,288
2012-11-25,35,31,26,27,23,18,81,72,63,30.03,29.93,29.86,10,8,1,17,9,22,0.02,8,Snow,232
2012-11-26,33,31,29,25,19,15,72,61,49,30.32,30.19,30.02,10,10,10,13,6,15,0.00,8,,300
2012-11-27,35,27,19,19,16,14,77,60,43,30.39,30.32,30.25,10,10,10,13,6,18,0.00,3,,255
2012-11-28,41,33,25,25,20,17,81,63,44,30.34,30.28,30.20,10,10,10,21,9,25,0.00,5,,248
2012-11-29,48,39,29,26,24,21,78,60,42,30.29,30.25,30.18,10,10,8,17,9,23,0.00,4,,209
2012-11-30,42,37,31,36,32,27,92,81,70,30.27,30.21,30.17,8,4,2,13,7,16,0.01,8,Snow,63